Chapel Hill, NC

8:24 PM EST on February 24, 2017 (GMT -0500)
Williams

Weather History for KIGX - December, 2012

Change the Weather History Date:

Wednesday, December 12, 2012

  Actual Average Record
Temperature  
Mean Temperature 42 °F -  
Max Temperature 46 °F 52 °F 77 °F (2007)
Min Temperature 37 °F 30 °F 6 °F (1958)
Degree Days  
Heating Degree Days 22    
Moisture  
Dew Point 32 °F    
Average Humidity 65    
Maximum Humidity 89    
Minimum Humidity 51    
Precipitation  
Precipitation 0.19 in - - ()
Sea Level Pressure  
Sea Level Pressure 30.28 in    
Wind  
Wind Speed 7 mph (NNE)    
Max Wind Speed 14 mph    
Max Gust Speed 21 mph    
Visibility 10 miles    
Events Rain    
Averages and records for this station are not official NWS values.
T = Trace of Precipitation, MM = Missing Value Source: NWS Daily Summary

Daily Weather History Graph

Daily Weather History Graph

Search for Another Location

Airport or City:

Trip Planner

Search our weather history database for the weather conditions in past years. The results will help you decide how hot, cold, wet, or windy it might be!

Date:

Astronomy

Dec. 12, 2012 Rise Set
Actual Time 7:17 AM EST 5:02 PM EST
Civil Twilight 6:49 AM EST 5:31 PM EST
Nautical Twilight 6:17 AM EST 6:03 PM EST
Astronomical Twilight 5:45 AM EST 6:34 PM EST
Moon 6:20 AM EST (12/12) 4:37 PM EST (12/12)
Length of Visible Light 10h 42m
Length of Day
9h 45m
Waning Crescent, 1% of the Moon is Illuminated
Dec 12
Waning Crescent
Dec 13
New
Dec 20
First Quarter
Dec 28
Full
Jan 4
Last Quarter

Hourly Weather History & Observations

Time (EST) Temp. Windchill Dew Point Humidity Pressure Visibility Wind Dir Wind Speed Gust Speed Precip Events Conditions
12:56 AM 46.0 °F 43.1 °F 30.9 °F 56% 30.17 in 10.0 mi NNW 5.8 mph - N/A   Overcast
1:56 AM 46.0 °F 43.1 °F 30.9 °F 56% 30.18 in 10.0 mi North 5.8 mph - N/A   Overcast
2:56 AM 46.0 °F 43.9 °F 32.0 °F 58% 30.19 in 10.0 mi NNE 4.6 mph - N/A   Overcast
3:56 AM 46.0 °F 43.1 °F 33.1 °F 61% 30.18 in 10.0 mi North 5.8 mph - N/A   Overcast
4:56 AM 46.9 °F - 34.0 °F 61% 30.21 in 10.0 mi NNE 5.8 mph - N/A   Overcast
5:56 AM 46.9 °F - 33.1 °F 59% 30.23 in 10.0 mi NE 6.9 mph - N/A   Overcast
6:56 AM 46.0 °F 41.4 °F 33.1 °F 61% 30.26 in 10.0 mi NNE 9.2 mph - N/A   Overcast
7:08 AM 46.0 °F 41.4 °F 32.0 °F 58% 30.26 in 10.0 mi NE 9.2 mph - N/A   Overcast
7:56 AM 44.1 °F 37.4 °F 30.9 °F 60% 30.25 in 10.0 mi NNE 13.8 mph - N/A   Overcast
8:56 AM 44.1 °F 42.5 °F 30.9 °F 60% 30.31 in 10.0 mi North 3.5 mph - N/A   Overcast
9:44 AM 44.1 °F 39.5 °F 30.0 °F 58% 30.31 in 10.0 mi North 8.1 mph 18.4 mph N/A   Overcast
9:56 AM 44.1 °F 38.6 °F 30.0 °F 58% 30.32 in 10.0 mi NE 10.4 mph - N/A   Overcast
10:56 AM 44.1 °F 39.0 °F 28.9 °F 55% 30.32 in 10.0 mi NE 9.2 mph 20.7 mph N/A   Overcast
11:56 AM 45.0 °F 40.1 °F 28.0 °F 52% 30.31 in 10.0 mi North 9.2 mph 19.6 mph N/A   Overcast
12:56 PM 45.0 °F 39.3 °F 28.0 °F 52% 30.30 in 10.0 mi NNE 11.5 mph - N/A   Overcast
1:56 PM 46.0 °F 40.2 °F 28.9 °F 51% 30.28 in 10.0 mi NE 12.7 mph - N/A   Overcast
2:56 PM 46.0 °F 41.9 °F 28.9 °F 51% 30.28 in 10.0 mi NNE 8.1 mph - N/A   Overcast
3:56 PM 44.1 °F 40.1 °F 32.0 °F 63% 30.29 in 10.0 mi NE 6.9 mph - 0.00 in Rain Light Rain
4:56 PM 42.1 °F - 35.1 °F 76% 30.30 in 10.0 mi Calm Calm - 0.01 in Rain Light Rain
5:56 PM 41.0 °F 35.8 °F 34.0 °F 76% 30.29 in 10.0 mi ENE 8.1 mph - 0.02 in Rain Light Rain
6:56 PM 42.1 °F 38.4 °F 34.0 °F 73% 30.30 in 10.0 mi NNE 5.8 mph - 0.00 in   Overcast
7:56 PM 41.0 °F 39.0 °F 35.1 °F 79% 30.34 in 6.0 mi Variable 3.5 mph - 0.03 in Rain Light Rain
8:56 PM 39.0 °F 33.4 °F 35.1 °F 86% 30.33 in 8.0 mi NNE 8.1 mph - 0.03 in Rain Light Rain
9:56 PM 39.0 °F 34.0 °F 35.1 °F 86% 30.33 in 7.0 mi NNE 6.9 mph - 0.04 in Rain Light Rain
10:56 PM 39.0 °F 34.8 °F 35.1 °F 86% 30.33 in 10.0 mi North 5.8 mph - 0.03 in Rain Light Rain
11:56 PM 37.9 °F 33.5 °F 35.1 °F 89% 30.31 in 8.0 mi NNE 5.8 mph - 0.03 in Rain Light Rain